www.pogodaiklimat.ru

Погода и климат >> Архив погоды >> Россия >> Чукотка >> Эгвекинот


ПОГОДА в Эгвекиноте

  • Прогноз погоды в Эгвекиноте
  • Монитор погоды в Эгвекиноте
  • Климат города

АРХИВ ПОГОДЫ в Эгвекиноте

Время (UTC), дата Ветер
(напр.,м/с)
 
Видим.   Явления Облачность Т
(С)
Тd
(С)
f
(%)
Тe
(С)
Тes
(С)
Комфортность P
(гПа)
Po
(гПа)
Тmin
(С)
Tmax
(С)
R
(мм)
R24
(мм)
S
(см)
18 12.10 С 3
{11}
10 км {ливн. осадки} 10/8 930 м
[Cb cap Ac und]
+3.3 +0.8 84 -1 -1 982.8 980.1 +1.2 14 1
21 12.10 С 6-11
{11}
10 км 10/10 1410 м
[Cb cap]
+3.9 +0.7 80 -2 -2 981.5 978.8 +1.2
00 13.10 С 4
{11}
10 км слабый ливневой дождь 10/8 600 м
[Cb cap Ac und]
+4.3 +0.8 78 0 0 980.3 977.6
03 13.10 С 6
{11}
4000 м слабый ливневой дождь 10/8 600 м
[Cb cap Ac und]
+3.7 +1.2 84 -2 -2 978.8 976.1
06 13.10 С 5
{10}
4000 м слабый ливневой дождь 10/8 600 м
[Cb cap Ac und]
+3.9 +1.1 82 -1 -1 978.2 975.5 +4.6 6
09 13.10 С 5-11
{13}
4000 м слабый ливневой дождь 10/9 600 м
[Cb cap Ac und]
+4.2 +1.0 80 -1 -1 977.6 974.9
12 13.10 С 5-11
{13}
4000 м слабый ливневой дождь 10/9 600 м
[Cb cap Ac und]
+4.0 +0.8 80 -1 -1 977.5 974.8
15 13.10 С 7-10
{11}
10 км слабый ливневой дождь 10/9 600 м
[Cb cap Ac und]
+4.2 +1.0 80 -2 -2 977.5 974.8
18 13.10 С 4
{10}
4000 м слабый ливневой дождь 10/8 600 м
[Cb cap Ac trans Ci sp]
+3.9 +1.2 83 -1 -1 978.5 975.8 +3.1 8 0
21 13.10 З 2
{7}
4000 м слабый ливневой дождь 10/8 600 м
[Cb cap Ac und]
+3.5 +1.5 87 +1 +1 980.8 978.1 +3.1
00 14.10 Ю 3
{10}
4000 м слабый ливневой дождь 10/9 300 м
[Cb cap Ac und]
+2.5 +1.7 94 -2 -2 984.0 981.3
03 14.10 З 2
{4}
10 км слабый ливневой дождь 10/8 300 м
[Cb cap Ac und]
+2.5 +1.5 93 -1 -1 985.4 982.7
06 14.10 Ю 7-10
{13}
10 км в посл. час ливневой дождь 10/8 750 м
[Cb cap Ac und]
+2.9 -0.4 79 -3 -3 988.5 985.8 +3.9 8
09 14.10 ЮВ 6-10
{11}
10 км 10/5 1200 м
[Cb cap Ac trans Ci sp]
+2.8 -1.4 74 -3 -3 990.8 988.1
12 14.10 ЮВ 4
{10}
10 км 10/6 1230 м
[Cb cap Ac und]
+2.9 -1.8 71 -2 -2 992.0 989.3
15 14.10 С 1
{8}
4000 м слабый ливневой снег 10/6 600 м
[Cb cap Ac und]
+0.9 -0.2 92 -1 -1 992.2 989.4
18 14.10 Ю 4
{11}
10 км слабый ливневой дождь 10/8 600 м
[Cb cap Ac und]
+1.8 +0.1 88 -3 -3 993.4 991.5 +0.9 1
21 14.10 С 2
{7}
4000 м слабый ливневой дождь со снегом 10/8 600 м
[Cb cap Ac und]
+1.8 0.0 88 -2 -2 996.1 993.3 +0.9
00 15.10 Ю 1
{6}
10 км слабый ливневой дождь 10/8 600 м
[Cb cap Ac trans Ci sp]
+3.0 +0.9 86 +1 +2 997.6 994.9
03 15.10 СВ 5
{8}
10 км {ливн. осадки} 9/8 930 м
[Cb cap Ac trans Ci sp]
+3.2 -0.1 79 -2 -2 998.4 995.6
06 15.10 С 5
{7}
10 км слабый ливневой дождь 10/8 600 м
[Cb cap Ac und]
+2.3 +0.2 86 -3 -3 998.8 996.0 +4.0 3
09 15.10 С 4
{9}
4000 м слабый ливневой дождь 10/8 600 м
[Cb cap Ac und]
+2.3 +0.2 86 -3 -3 998.8 996.0
12 15.10 СЗ 2
{8}
4000 м слабый ливневой дождь 10/8 600 м
[Cb cap Ac und]
+1.7 +0.2 90 -2 -2 999.4 996.6
15 15.10 С 3
{7}
4000 м слабый ливневой дождь 10/8 600 м
[Cb cap Ac und]
+1.3 +0.1 92 -3 -3 999.6 996.8
18 15.10 С 5
{8}
10 км в посл. час ливневой дождь 10/8 630 м
[Cb cap Ac und]
+1.6 0.0 89 -4 -4 999.9 997.1 +1.0 8
21 15.10 СВ 2
{8}
10 км {ливн. осадки} 10/10 660 м
[Cb cap]
+1.3 +0.1 92 -2 -2 1000.0 997.2 +1.0
00 16.10 СВ 4
{6}
10 км {ливн. осадки} 10/8 600 м
[Cb cap Ci fib]
+3.0 -1.0 75 -2 -1 1000.6 997.8
03 16.10 СВ 3
{7}
10 км {ливн. осадки} 10/8 1140 м
[Cb cap Ci fib]
+2.6 -0.9 78 -1 -1 1001.1 998.3
06 16.10 С 3
{8}
10 км {ливн. осадки} 10/8 1110 м
[Cb cap Ci fib]
+1.9 -2.2 74 -2 -2 1002.0 999.2 +3.0 1
09 16.10 С 6
{8}
4000 м слабый ливневой снег 10/8 600 м
[Cb cap Ac und]
+1.2 -1.9 80 -5 -5 1003.5 1000.7
12 16.10 С 3
{9}
10 км {ливн. осадки} 8/4 600 м
[Cb cap Ac trans Ci fib]
+0.8 -1.9 82 -4 -4 1004.3 1001.5
15 16.10 С 2
{7}
10 км 10/6 1080 м
[Cb cap Ac und]
+1.7 -2.8 72 -1 -1 1004.5 1001.7
18 16.10 С 6
{10}
4000 м слабый ливневой снег 10/8 600 м
[Cb cap Ac trans Ci sp]
+1.6 -3.1 71 -4 -4 1005.7 1002.9 +0.8 0.0
21 16.10 С 7-10
{11}
20 км {ливн. осадки} 10/5 1320 м
[Cb cap Ac trans Ci sp]
+1.0 -3.6 71 -6 -6 1007.2 1004.4 +0.8
00 17.10 С 6
{12}
20 км {ливн. осадки} 10/4 1000 м
[Cb cap Ac trans Ci sp]
+0.6 -5.2 65 -5 -5 1008.0 1005.2
03 17.10 С 7
{12}
20 км 10/3 1000 м
[Cb cap Ac trans Ci sp]
-0.1 -6.3 63 -7 -7 1008.0 1005.2
06 17.10 С 8-11
{12}
20 км 8/3 1000 м
[Sc Ac trans Ci fib]
-1.5 -7.5 64 -9 -9 1008.4 1005.6 +1.8 0.0
09 17.10 СЗ 6
{12}
20 км 6/3 1000 м
[Sc Ci fib]
-1.5 -7.0 66 -8 -8 1008.8 1006.0
12 17.10 С 8-14
{14}
20 км 5/0
[Ac trans Ci fib]
-0.6 -6.0 67 -8 -8 1009.0 1006.2
15 17.10 С 6-13
{14}
20 км 5/0
[Ac trans Ci fib]
-0.6 -7.2 61 -7 -7 1009.4 1006.6
18 17.10 С 7-13
{14}
20 км 10/6 1380 м
[Sc Ac trans Ci fib]
-1.1 -7.7 61 -8 -8 1010.3 1007.5 -2.0
21 17.10 СЗ 5
{13}
10 км 10/6 1000 м
[Sc Ac trans Ci fib]
-1.9 -7.2 67 -8 -8 1012.1 1009.3 -2.1
00 18.10 С 4
{10}
10 км {ливн. осадки} 10/4 1000 м
[Sc Ac trans Ci sp]
-0.9 -8.8 55 -6 -6 1012.5 1009.7
03 18.10 С 3
{10}
20 км 10/3 1000 м
[Sc Ac trans Ci fib]
-1.3 -9.1 55 -6 -6 1012.5 1009.7
06 18.10 С 7-10
{12}
10 км 10/6 1020 м
[Cb cap As op]
-1.1 -9.2 54 -8 -8 1012.7 1009.9 -0.5 0.0
09 18.10 С 6-10
{11}
10 км 8/4 1080 м
[Cb cap Ac trans Ci fib]
-1.5 -8.9 57 -8 -8 1013.8 1011.0
12 18.10 СЗ 5
{10}
20 км 4/4 1000 м
[Sc]
-2.0 -9.4 57 -8 -8 1014.8 1012.0
15 18.10 С 6-10
{11}
20 км 3/3 1000 м
[Sc]
-2.5 -10.8 53 -9 -9 1015.0 1012.1
18 18.10 С 5
{11}
20 км 3/3 1000 м
[Sc]
-3.3 -11.8 52 -10 -10 1015.1 1012.2 -3.3
21 18.10 С 5
{10}
20 км 3/3 1500 м
[Sc Ac trans]
-2.4 -11.2 51 -8 -8 1015.5 1012.7 -4.3
00 19.10 С 6
{10}
20 км 1/1 1500 м
[Sc]
-1.4 -11.6 46 -8 -7 1015.3 1012.5
03 19.10 СВ 6
{8}
20 км 3/3 1000 м
[Sc]
-3.5 -11.2 55 -10 -10 1015.1 1012.2
06 19.10 СЗ 4
{9}
20 км 1/1 1500 м
[Sc]
-2.4 -12.8 45 -8 -8 1014.8 1012.0 -1.1
09 19.10 СВ 1
{7}
20 км ясно -7.3 -12.4 67 -9 -9 1014.8 1011.9
12 19.10 Ю 1
{6}
20 км ясно -7.2 -12.8 64 -9 -9 1014.3 1011.4
15 19.10 СЗ 2
{4}
20 км ясно -7.9 -13.6 64 -12 -12 1012.8 1009.9

 

Местоположение метеостанции Эгвекинот (Чукотка, Россия): широта 66.35 долгота -179.00 высота над уровнем моря 22 м.

В архиве по умолчанию представлена погода в Эгвекиноте за последнюю неделю. Архивные данные за месяц целиком и за предыдущие месяцы, начиная с января 2011 года, Вы можете получить, выбрав интересующий диапазон дат из раскрывающегося списка и нажав кнопку "Ввод!".

Внимание! Время в таблицах - всемирное. Для получения местного времени необходимо прибавить поправку, которая в Эгвекиноте равна 12 ч.

Смотрите также архив погоды в соседних городах и на ближайших метеорологических станциях:

Погода на Мысе Ванкарем (Чукотка, Россия) (239 км)
Погода в Уэлене (Чукотка, Россия) (448 км)
Погода на Острове Врангеля (Чукотка, Россия) (517 км)

Пояснения к столбцам:

Ветер - указаны скорость ветра в м/с - средняя за 10 мин, порывы в срок и между сроками (в фигурных скобках) и направление, откуда дует ветер: С - северный, СВ - северо-восточный, В - восточный, ЮВ - юго-восточный, Ю - южный, ЮЗ - юго-западный, З - западный, СЗ - северо-западный.
Видимость - горизонтальная дальность видимости в метрах или километрах. При видимости от 1 до 10 км при отсутствии осадков обычно наблюдается дымка, при ухудшении видимости до 1 км и менее - туман. В сухую погоду видимость может ухудшаться дымом, пылью или мглою.
Явления - указаны атмосферные явления, наблюдавшиеся в срок или в последний час перед сроком; фигурными скобками обозначены явления, наблюдавшиеся между сроками (за 1-3 часа до срока); квадратными скобками обозначены град или гололедные отложения с указанием их диаметра в мм.
Облачность - указаны через наклонную черту общая и нижняя облачность в баллах и высота нижней границы облаков в метрах; квадратными скобками обозначены формы облаков: Ci - перистые, Cs - перисто-слоистые, Cc - перисто-кучевые, Ac - высококучевые, As - высокослоистые, Sc - слоисто-кучевые, Ns - слоисто-дождевые, Cu - кучевые, Cb - кучево-дождевые. Подробнее классификацию облаков см. в Атласе облаков (PDF).
T - Температура воздуха - температура, измеренная на высоте 2 м над землей.
Td - Температура точки росы - температура, при понижении до которой содержащийся в воздухе водяной пар достигнет насыщения.
f - Относительная влажность воздуха - влажноcть воздуха, измеренная на высоте 2 м над землей.
Te - Эффективная температура - температура, которую ощущает одетый по сезону человек в тени. Характеристика душности погоды. При расчете учитывается влияние влажности воздуха и скорости ветра на теплоощущения человека.
Tes - Эффективная температура на солнце - температура, которую ощущает человек, с поправкой на солнечный нагрев. Характеристика знойности погоды. Зависит от высоты солнца над горизонтом, облачности и скорости ветра. Ночью, в пасмурную погоду, а также при ветре 12 м/с и более поправка равна нулю.
P - Атмосферное давление - приведенное к уровню моря атмосферное давление.
Po - Атмосферное давление - измеренное на уровне метеостанции атмосферное давление.
Tmin - Минимальная температура - минимум температуры воздуха на высоте 2 м над землей.
Tmax - Максимальная температура - максимум температуры воздуха на высоте 2 м над землей.
R - Количество осадков - Количество выпавших осадков за период времени, мм. При наведении курсора мыши на число - период времени, за который выпало указанное количество осадков.
R24 - Количество осадков - Количество выпавших осадков за 24 часа, мм.
S - Снежный покров - Высота снежного покрова, см. При наведении курсора мыши на число - состояние снежного покрова и степень покрытия местности в баллах.